[[{"header":{"parameterUnit":"m.s-1","parameterCategory":1,"la1":30.2991,"la2":30.254,"lo1":-89.0895,"lo2":-89.0444,"dy":0.0017,"dx":0.0017,"nx":28,"ny":28,"refTime":"2023-08-28T21:00:00:Z","depth":0,"parameterNumber":2,"parameterNumberName":"U-component_of_WINDS"},"data":[0,0,0,0,0,0,0,0,0,0,0,0,0,0,0,0,0,0,0,0,0,0,0,0,0,0,0,0,0,0,0,0,0,0,0,0,0,0,0,0,0,0,0,0,0,0,0,0,0,0,0,0,0,0,0,0,0,0,-0.846,-0.8462,0,-0.8602,-0.8603,-0.8605,-0.8595,-0.8593,-0.8591,-0.8589,-0.8738,-0.8743,-0.8749,0,0,0,0,0,0,0,0,0,0,0,0,0,-0.8185,-0.819,-0.846,-0.8462,-0.8464,-0.8601,-0.8603,-0.8605,-0.8595,-0.8593,-0.859,-0.8588,-0.8736,-0.8743,-0.875,0,0,0,0,0,0,0,0,0,0,0,0,0,-0.8313,-0.8192,-0.846,-0.8475,-0.8478,-0.8601,-0.8603,-0.8606,-0.8596,-0.8593,-0.8589,-0.8586,-0.8733,-0.8742,-0.8751,-0.8869,0,0,-0.8778,-0.8782,0,0,0,0,0,0,0,0,-0.8306,-0.8324,-0.8471,-0.8474,-0.8478,-0.8577,-0.8561,-0.8694,-0.8596,-0.8551,-0.8589,-0.8585,-0.8687,-0.87,-0.8733,-0.8876,-0.8882,-0.8779,-0.8784,-0.8788,-0.879,0,0,0,0,0,0,0,-0.8297,-0.8317,-0.8516,-0.8473,-0.8477,-0.8476,-0.8491,-0.8586,-0.8635,-0.8555,-0.8554,-0.8571,-0.8688,-0.8725,-0.8737,-0.8885,-0.8779,-0.8786,-0.8792,-0.8795,-0.9133,-0.9137,0,0,0,0,0,0,-0.8284,-0.831,-0.8512,-0.852,-0.8382,-0.8484,-0.85,-0.8549,-0.8634,-0.8644,-0.8574,-0.857,-0.8711,-0.8726,-0.8742,-0.8888,-0.8788,-0.8796,-0.8801,-0.913,-0.9134,-0.9138,0,0,0,0,0,0,-0.8279,-0.8302,-0.8506,-0.8415,-0.8441,-0.8492,-0.8546,-0.8553,-0.8589,-0.8648,-0.8657,-0.8602,-0.8709,-0.8729,-0.8838,-0.8893,-0.88,-0.8808,-0.9126,-0.9131,-0.9136,-0.9179,0,0,0,0,0,0,-0.8271,-0.83,-0.8345,-0.8416,-0.8446,-0.8598,-0.8549,-0.8558,-0.8604,-0.8601,-0.8677,-0.8687,-0.8708,-0.8824,-0.8846,-0.8903,-0.8815,-0.9121,-0.9128,-0.9134,-0.9173,-0.9186,-0.9196,0,0,0,0,0,-0.8261,-0.8352,-0.8347,-0.8372,-0.8503,-0.8602,-0.8619,-0.8641,-0.8609,-0.8655,-0.8693,-0.8684,-0.8882,-0.8836,-0.886,-0.8921,-0.9118,-0.9126,-0.9134,-0.9168,-0.9183,-0.9196,0,0,0,0,0,0,-0.8288,-0.8362,-0.8357,-0.8474,-0.8531,-0.86,-0.8659,-0.8655,-0.8724,-0.8719,-0.8744,-0.8761,-0.887,-0.8906,-0.8852,-0.904,-0.8996,-0.901,-0.9014,-0.9028,-0.904,-0.903,-0.8823,0,0,0,0,0,-0.8307,-0.838,-0.8441,-0.8538,-0.8567,-0.8608,-0.8652,-0.8663,-0.8724,-0.8749,-0.8795,-0.8856,-0.8932,-0.8982,-0.9055,-0.9177,-0.9195,-0.9231,-0.9243,-0.9252,-0.9264,-0.9334,-0.9351,-0.9165,-0.9165,-0.9165,0,0,-0.8348,-0.8397,-0.8442,-0.8545,-0.8591,-0.8667,-0.8628,-0.8711,-0.8768,-0.8762,-0.8867,-0.8903,-0.8972,-0.9089,-0.9143,-0.9122,-0.9319,-0.9262,-0.9269,-0.9277,-0.9344,-0.9362,-0.9377,-0.9171,-0.917,-0.9169,0,0,-0.8462,-0.8506,-0.8593,-0.8639,-0.8708,-0.8735,-0.8755,-0.8824,-0.8847,-0.8953,-0.895,-0.9019,-0.9149,-0.92,-0.9242,-0.9375,-0.9371,-0.9398,-0.9459,-0.9526,-0.9541,-0.9554,-0.9604,-0.9622,-0.9409,-0.9409,-0.941,0,-0.8505,-0.8619,-0.8638,-0.8721,-0.8767,-0.8763,-0.8852,-0.8896,-0.8987,-0.9019,-0.8994,-0.9158,-0.9204,-0.9334,-0.9366,-0.9399,-0.9426,-0.9391,-0.9537,-0.9551,-0.9563,-0.9611,-0.963,-0.9413,-0.9412,-0.9412,-0.9412,0,-0.867,-0.8749,-0.8811,-0.8897,-0.895,-0.9035,-0.9068,-0.9119,-0.9126,-0.9155,-0.9264,-0.9319,-0.9404,-0.9435,-0.9443,-0.9566,-0.9551,-0.9531,-0.9488,-0.9584,-0.963,-0.9648,-0.9417,-0.9416,-0.9415,-0.9414,0,0,-0.8808,-0.8902,-0.8925,-0.8964,-0.904,-0.9103,-0.9188,-0.927,-0.9315,-0.9376,-0.9451,-0.956,-0.9543,-0.9591,-0.9604,-0.9663,-0.9768,-0.9636,-0.9638,-0.9661,-0.991,-0.9926,-0.9947,-0.9764,-0.9767,-0.977,-0.9905,0,-0.8932,-0.9083,-0.9102,-0.9237,-0.9312,-0.9308,-0.9383,-0.9439,-0.9468,-0.9537,-0.9569,-0.9648,-0.9617,-0.9646,-0.9704,-0.9743,-0.9818,-0.9733,-0.9836,-0.9839,-0.9822,-0.9971,-0.9988,-1.0113,-0.9922,-0.9925,-0.9928,0,-0.9098,-0.9163,-0.9306,-0.9372,-0.9404,-0.9471,-0.9548,-0.9613,-0.9676,-0.9693,-0.9747,-0.9752,-0.9843,-0.9793,-0.992,-0.9861,-0.9904,-0.9929,-0.9934,-0.9947,-0.9892,-0.9991,-1.0153,-1.0173,-0.9955,-0.9953,-0.9951,0,-0.9187,-0.9311,-0.9413,-0.9446,-0.9525,-0.9573,-0.9608,-0.9668,-0.9716,-0.9784,-0.9816,-0.9893,-0.9936,-0.9997,-1.0024,-0.9984,-1.0149,-1.0101,-1.0169,-1.0168,-1.0206,-1.0204,-1.0381,-1.0229,-1.0228,-1.0228,-1.0228,0,-0.9326,-0.9414,-0.9454,-0.9517,-0.9616,-0.9636,-0.9734,-0.9768,-0.9821,-0.9892,-0.9893,-0.9959,-0.9989,-1.0061,-1.0082,-1.0185,-1.0204,-1.0222,-1.0228,-1.0224,-1.0222,-1.0255,-1.0248,-1.0233,-1.0232,-1.0231,-1.023,0,-0.9444,-0.9474,-0.9585,-0.965,-0.9669,-0.9739,-0.9796,-0.9858,-0.9885,-0.9975,-0.9997,-1.0042,-1.0126,-1.0158,-1.0261,-1.0275,-1.0395,-1.0392,-1.0374,-1.0376,-1.0443,-1.0437,-1.065,-1.068,-1.0505,-1.0506,-1.0507,0,-0.9532,-0.96,-0.9672,-0.9718,-0.9755,-0.983,-0.9879,-0.9902,-0.9954,-1.003,-1.0084,-1.0167,-1.0235,-1.037,-1.0413,-1.0493,-1.0493,-1.0562,-1.0505,-1.05,-1.0498,-1.0495,-1.0503,-1.0574,-1.0575,-1.0577,-1.0578,0,-0.9686,-0.9698,-0.9767,-0.9843,-0.9901,-0.9962,-1.0021,-1.0059,-1.0091,-1.0149,-1.0235,-1.0288,-1.0392,-1.0476,-1.0557,-1.0596,-1.0594,-1.0595,-1.0615,-1.0614,-1.0602,-1.0613,-1.0406,-1.0591,-1.059,-1.0589,-1.0588,-1.0587,-0.9794,-0.9855,-0.9915,-0.9993,-1.004,-1.0095,-1.0156,-1.0191,-1.0263,-1.0349,-1.0358,-1.0451,-1.0513,-1.0622,-1.0663,-1.0737,-1.0719,-1.0748,-1.0756,-1.0764,-1.077,-1.0587,-1.0752,-1.0751,-1.0751,-1.0751,-1.0751,0,-0.9951,-0.9989,-1.006,-1.0143,-1.0205,-1.0194,-1.0259,-1.0312,-1.0393,-1.0451,-1.0518,-1.0617,-1.0698,-1.0747,-1.0829,-1.0879,-1.088,-1.09,-1.0898,-1.0908,-1.078,-1.0755,-1.0898,-1.0898,-1.0898,-1.0898,-1.0897,-1.0897,-1.004,-1.0142,-1.0161,-1.0286,-1.0324,-1.0414,-1.0453,-1.0504,-1.055,-1.0661,-1.0728,-1.0758,-1.0813,-1.0899,-1.0973,-1.0986,-1.1017,-1.1039,-1.1051,-1.0931,-1.0916,-1.0902,-1.0879,-1.1045,-1.1045,-1.1173,-1.1174,-1.1175]},{"header":{"parameterUnit":"m.s-1","parameterCategory":1,"la1":30.2991,"la2":30.254,"lo1":-89.0895,"lo2":-89.0444,"dy":0.0017,"dx":0.0017,"nx":28,"ny":28,"refTime":"2023-08-28T21:00:00:Z","depth":0,"parameterNumber":3,"parameterNumberName":"V-component_of_WINDS"},"data":[0,0,0,0,0,0,0,0,0,0,0,0,0,0,0,0,0,0,0,0,0,0,0,0,0,0,0,0,0,0,0,0,0,0,0,0,0,0,0,0,0,0,0,0,0,0,0,0,0,0,0,0,0,0,0,0,0,0,-5.4827,-5.4828,0,-5.4857,-5.4857,-5.4857,-5.4768,-5.4766,-5.4763,-5.476,-5.4787,-5.479,-5.4794,0,0,0,0,0,0,0,0,0,0,0,0,0,-5.469,-5.4693,-5.4827,-5.4828,-5.4828,-5.4857,-5.4857,-5.4857,-5.4769,-5.4766,-5.4762,-5.4759,-5.4786,-5.479,-5.4794,0,0,0,0,0,0,0,0,0,0,0,0,0,-5.4738,-5.4694,-5.4827,-5.4787,-5.4784,-5.4856,-5.4857,-5.4857,-5.477,-5.4766,-5.4761,-5.4758,-5.4785,-5.479,-5.4794,-5.4906,0,0,-5.4809,-5.4811,0,0,0,0,0,0,0,0,-5.4735,-5.4743,-5.4793,-5.479,-5.4787,-5.4805,-5.4818,-5.4873,-5.4771,-5.4775,-5.476,-5.4756,-5.4796,-5.48,-5.4814,-5.4907,-5.4908,-5.481,-5.4813,-5.4815,-5.4816,0,0,0,0,0,0,0,-5.4732,-5.4741,-5.4839,-5.4794,-5.479,-5.4767,-5.4769,-5.4828,-5.4808,-5.4774,-5.4768,-5.4773,-5.4794,-5.481,-5.4814,-5.4908,-5.481,-5.4814,-5.4817,-5.4819,-5.5092,-5.5096,0,0,0,0,0,0,-5.4734,-5.4739,-5.4838,-5.484,-5.4751,-5.4772,-5.4775,-5.4803,-5.4807,-5.4804,-5.4776,-5.4769,-5.4803,-5.4809,-5.4815,-5.4944,-5.4815,-5.4819,-5.4822,-5.5088,-5.5093,-5.5098,0,0,0,0,0,0,-5.4732,-5.4744,-5.4837,-5.4788,-5.4798,-5.4779,-5.4811,-5.4806,-5.4822,-5.4809,-5.4804,-5.4797,-5.48,-5.4808,-5.4884,-5.4944,-5.4821,-5.4826,-5.5083,-5.5089,-5.5095,-5.5205,0,0,0,0,0,0,-5.4728,-5.4744,-5.4787,-5.4789,-5.4801,-5.4907,-5.4815,-5.4809,-5.4831,-5.4821,-5.4826,-5.4823,-5.4798,-5.4877,-5.4888,-5.4948,-5.483,-5.5077,-5.5086,-5.5093,-5.5196,-5.5215,-5.523,0,0,0,0,0,-5.4724,-5.4816,-5.4789,-5.4802,-5.4854,-5.491,-5.4916,-5.4886,-5.4836,-5.4878,-5.487,-5.4823,-5.4936,-5.4885,-5.4898,-5.496,-5.5073,-5.5083,-5.5093,-5.5188,-5.5211,-5.523,0,0,0,0,0,0,-5.482,-5.4816,-5.4786,-5.4882,-5.4898,-5.4895,-5.4948,-5.4911,-5.494,-5.4929,-5.4889,-5.4891,-5.4974,-5.4974,-5.4918,-5.5067,-5.4996,-5.5008,-5.5064,-5.5085,-5.5102,-5.51,-5.4834,0,0,0,0,0,-5.4853,-5.49,-5.4893,-5.4978,-5.4987,-5.4967,-5.499,-5.4965,-5.4979,-5.4984,-5.4981,-5.4995,-5.5033,-5.5059,-5.5094,-5.5196,-5.5195,-5.5244,-5.5262,-5.5276,-5.5287,-5.534,-5.5362,-5.513,-5.513,-5.513,0,0,-5.492,-5.4924,-5.4956,-5.4998,-5.5006,-5.5055,-5.4973,-5.5027,-5.5062,-5.4992,-5.5064,-5.5062,-5.5075,-5.5164,-5.5203,-5.5167,-5.5351,-5.5288,-5.53,-5.5303,-5.5352,-5.5374,-5.5394,-5.5137,-5.5135,-5.5134,0,0,-5.5068,-5.5076,-5.5147,-5.5158,-5.5173,-5.5158,-5.5175,-5.5179,-5.5175,-5.5247,-5.5195,-5.5235,-5.5302,-5.5313,-5.5328,-5.5479,-5.5437,-5.5491,-5.5581,-5.5633,-5.5651,-5.5667,-5.572,-5.574,-5.5503,-5.5503,-5.5503,0,-5.5149,-5.5222,-5.5188,-5.5247,-5.5266,-5.5206,-5.5277,-5.5289,-5.5314,-5.5328,-5.5287,-5.537,-5.5374,-5.5465,-5.5502,-5.5515,-5.5533,-5.549,-5.5652,-5.5667,-5.5682,-5.5732,-5.5752,-5.5509,-5.5509,-5.5508,-5.5507,0,-5.5321,-5.5372,-5.5427,-5.5454,-5.548,-5.5544,-5.552,-5.5549,-5.5522,-5.5512,-5.5584,-5.5587,-5.5621,-5.5641,-5.5614,-5.5727,-5.5704,-5.5659,-5.5586,-5.5711,-5.5757,-5.5776,-5.5519,-5.5516,-5.5514,-5.5513,0,0,-5.553,-5.5538,-5.5559,-5.557,-5.5581,-5.5619,-5.568,-5.5714,-5.574,-5.5759,-5.5808,-5.5866,-5.5824,-5.584,-5.5815,-5.586,-5.5979,-5.5808,-5.5808,-5.584,-5.6103,-5.6137,-5.616,-5.5952,-5.5955,-5.5958,-5.6101,0,-5.5675,-5.5781,-5.5753,-5.5858,-5.5904,-5.5847,-5.59,-5.5912,-5.5904,-5.594,-5.593,-5.5972,-5.5913,-5.5922,-5.5965,-5.5956,-5.6031,-5.5945,-5.5996,-5.5998,-5.5994,-5.6184,-5.6221,-5.6356,-5.6119,-5.6122,-5.6125,0,-5.5858,-5.5886,-5.5996,-5.5999,-5.6017,-5.6066,-5.6094,-5.613,-5.6142,-5.6133,-5.6151,-5.6116,-5.6175,-5.6102,-5.6182,-5.6124,-5.6143,-5.6142,-5.6146,-5.6149,-5.6069,-5.6192,-5.6398,-5.6419,-5.6153,-5.6151,-5.6149,0,-5.5999,-5.6063,-5.6137,-5.6149,-5.6155,-5.619,-5.6194,-5.6202,-5.6224,-5.6248,-5.6262,-5.6293,-5.6309,-5.6333,-5.6307,-5.6257,-5.6391,-5.6316,-5.6383,-5.6384,-5.6414,-5.6412,-5.6626,-5.6427,-5.6427,-5.6427,-5.6426,0,-5.6164,-5.6234,-5.6201,-5.6246,-5.6322,-5.6288,-5.6363,-5.636,-5.6368,-5.6411,-5.6363,-5.6404,-5.6367,-5.6405,-5.6384,-5.6453,-5.6461,-5.6454,-5.6448,-5.6458,-5.6459,-5.647,-5.646,-5.6432,-5.6431,-5.643,-5.6429,0,-5.6334,-5.6315,-5.6392,-5.6391,-5.6393,-5.6449,-5.6447,-5.6489,-5.6477,-5.6531,-5.6542,-5.6523,-5.6565,-5.6541,-5.6583,-5.6569,-5.6659,-5.664,-5.6655,-5.665,-5.6718,-5.6712,-5.6946,-5.6975,-5.6758,-5.676,-5.6762,0,-5.644,-5.6493,-5.6498,-5.6524,-5.6531,-5.6573,-5.6596,-5.6564,-5.6588,-5.6606,-5.6645,-5.6682,-5.6711,-5.678,-5.6769,-5.6801,-5.6782,-5.6861,-5.6786,-5.6795,-5.6782,-5.6779,-5.6784,-5.6876,-5.6879,-5.6881,-5.6883,0,-5.6631,-5.6618,-5.6653,-5.6685,-5.6713,-5.6736,-5.6755,-5.6778,-5.6746,-5.6776,-5.6819,-5.6841,-5.6884,-5.6922,-5.6949,-5.6951,-5.6912,-5.6907,-5.6924,-5.6935,-5.6941,-5.6938,-5.6696,-5.6901,-5.6899,-5.6898,-5.6897,-5.6896,-5.6771,-5.6815,-5.6825,-5.6865,-5.6876,-5.6895,-5.6933,-5.6926,-5.6962,-5.6995,-5.6973,-5.7023,-5.7033,-5.7065,-5.7072,-5.711,-5.7078,-5.7103,-5.7109,-5.7116,-5.7125,-5.6936,-5.7115,-5.7114,-5.7114,-5.7113,-5.7113,0,-5.6958,-5.6962,-5.7,-5.7028,-5.7059,-5.702,-5.7038,-5.7067,-5.7111,-5.7124,-5.7153,-5.7201,-5.7237,-5.7229,-5.7262,-5.7293,-5.7276,-5.7303,-5.73,-5.7301,-5.7152,-5.7134,-5.7316,-5.7316,-5.7316,-5.7316,-5.7316,-5.7316,-5.706,-5.7131,-5.712,-5.7196,-5.7198,-5.7248,-5.7261,-5.7278,-5.7288,-5.7344,-5.7374,-5.7369,-5.7373,-5.7405,-5.7436,-5.7433,-5.7446,-5.748,-5.747,-5.7331,-5.7311,-5.7292,-5.7275,-5.7483,-5.7484,-5.7615,-5.7616,-5.7617]}]]